Weather History for Fort Worth, TX

Change the Weather History Date:

Tuesday, August 27, 2013

  Actual Average Record
Temperature  
Mean Temperature 83 °F -  
Max Temperature 95 °F 92 °F 107 °F (2011)
Min Temperature 73 °F 71 °F 69 °F (1997)
Cooling Degree Days 18    
Growing Degree Days 33 (Base 50)    
Moisture  
Dew Point 69 °F    
Average Humidity 71    
Maximum Humidity 88    
Minimum Humidity 40    
Precipitation  
Precipitation 0.01 in - - ()
Sea Level Pressure  
Sea Level Pressure 30.06 in    
Wind  
Wind Speed 10 mph (South)    
Max Wind Speed 20 mph    
Max Gust Speed 29 mph    
Visibility 10 miles    
Events      
Averages and records for this station are not official NWS values.
T = Trace of Precipitation, MM = Missing Value Source: NWS Daily Summary

Daily Weather History Graph

Daily Weather History Graph

Search for Another Location

Airport:

Trip Planner

Search our weather history database for the weather conditions in past years. The results will help you decide how hot, cold, wet, or windy it might be!

Date:

Astronomy

Aug. 27, 2013 Rise Set
Actual Time 7:01 AM CDT 8:00 PM CDT
Civil Twilight 6:35 AM CDT 8:25 PM CDT
Nautical Twilight 6:05 AM CDT 8:55 PM CDT
Astronomical Twilight 5:34 AM CDT 9:26 PM CDT
Moon No Moon Rise 1:36 PM CDT (8/27)
Length of Visible Light 13h 49m
Length of Day
12h 59m
Waning Gibbous, 57% of the Moon is Illuminated
Aug 27
Waning Gibbous
Aug 28
Last Quarter
Sep 5
New
Sep 12
First Quarter
Sep 19
Full

Hourly Weather History & Observations

Time (CDT) Temp. Heat Index Dew Point Humidity Pressure Visibility Wind Dir Wind Speed Gust Speed Precip Events Conditions
12:53 AM 78.1 °F - 68.0 °F 71% 30.04 in 10.0 mi SE 6.9 mph - N/A   Clear
1:53 AM 77.0 °F - 69.1 °F 76% 30.03 in 10.0 mi SSE 11.5 mph - N/A   Clear
2:53 AM 75.0 °F - 70.0 °F 84% 30.03 in 10.0 mi SSE 9.2 mph - N/A   Clear
3:53 AM 75.0 °F - 71.1 °F 87% 30.05 in 10.0 mi SSE 11.5 mph - N/A   Mostly Cloudy
4:53 AM 75.0 °F - 71.1 °F 87% 30.05 in 10.0 mi South 9.2 mph - N/A   Mostly Cloudy
5:53 AM 73.9 °F - 70.0 °F 87% 30.05 in 10.0 mi SSE 9.2 mph - N/A   Clear
6:45 AM 73.4 °F - 69.8 °F 88% 30.09 in 10.0 mi SE 9.2 mph - N/A   Mostly Cloudy
6:53 AM 73.9 °F - 70.0 °F 87% 30.07 in 10.0 mi SE 12.7 mph - N/A   Overcast
7:23 AM 73.4 °F - 69.8 °F 88% 30.10 in 10.0 mi SSE 9.2 mph - N/A   Overcast
7:53 AM 73.9 °F - 70.0 °F 87% 30.09 in 10.0 mi SE 10.4 mph - N/A   Mostly Cloudy
8:27 AM 73.4 °F - 69.8 °F 88% 30.12 in 10.0 mi SSE 9.2 mph - N/A   Overcast
8:53 AM 75.0 °F - 70.0 °F 84% 30.10 in 10.0 mi SSE 10.4 mph - N/A   Overcast
9:53 AM 77.0 °F - 70.0 °F 79% 30.10 in 10.0 mi SSE 10.4 mph - N/A   Overcast
10:00 AM 78.8 °F - 69.8 °F 74% 30.13 in 10.0 mi SSE 11.5 mph - N/A   Overcast
10:15 AM 78.8 °F - 69.8 °F 74% 30.13 in 10.0 mi SSE 9.2 mph - N/A   Mostly Cloudy
10:30 AM 80.6 °F 83.9 °F 69.8 °F 70% 30.13 in 10.0 mi South 11.5 mph - N/A   Mostly Cloudy
10:53 AM 80.1 °F 83.2 °F 70.0 °F 71% 30.10 in 10.0 mi South 6.9 mph - N/A   Mostly Cloudy
11:40 AM 82.4 °F 86.3 °F 69.8 °F 66% 30.12 in 10.0 mi South 10.4 mph 17.3 mph N/A   Overcast
11:53 AM 84.0 °F 87.8 °F 69.1 °F 61% 30.09 in 10.0 mi South 10.4 mph - N/A   Overcast
12:53 PM 88.0 °F 91.4 °F 68.0 °F 51% 30.07 in 10.0 mi South 16.1 mph 20.7 mph N/A   Mostly Cloudy
1:53 PM 90.0 °F 92.8 °F 66.9 °F 46% 30.05 in 10.0 mi South 15.0 mph 21.9 mph N/A   Scattered Clouds
2:53 PM 93.9 °F 97.0 °F 66.0 °F 40% 30.03 in 10.0 mi SSW 16.1 mph 20.7 mph N/A   Scattered Clouds
3:53 PM 93.9 °F 97.0 °F 66.0 °F 40% 30.01 in 10.0 mi SSW 9.2 mph - N/A   Scattered Clouds
4:53 PM 91.9 °F 94.5 °F 66.0 °F 42% 30.01 in 10.0 mi South 15.0 mph - N/A   Overcast
5:12 PM 86.0 °F 90.4 °F 69.8 °F 58% 30.05 in 4.0 mi SW 19.6 mph 28.8 mph N/A   Haze
5:19 PM 84.2 °F 88.4 °F 69.8 °F 62% 30.04 in 7.0 mi SW 13.8 mph 27.6 mph N/A   Overcast
5:53 PM 80.1 °F 83.6 °F 71.1 °F 74% 30.03 in 10.0 mi SW 9.2 mph - 0.01 in   Mostly Cloudy
6:53 PM 84.9 °F 88.8 °F 69.1 °F 59% 30.01 in 10.0 mi SSW 11.5 mph - N/A   Clear
7:53 PM 82.0 °F 85.5 °F 69.1 °F 65% 30.00 in 10.0 mi South 8.1 mph - N/A   Clear
8:53 PM 80.1 °F 83.2 °F 70.0 °F 71% 30.01 in 10.0 mi SSW 4.6 mph - N/A   Clear
9:53 PM 78.1 °F - 70.0 °F 76% 30.02 in 10.0 mi South 3.5 mph - N/A   Clear
10:53 PM 78.1 °F - 69.1 °F 74% 30.02 in 10.0 mi SSE 5.8 mph - N/A   Clear
11:53 PM 77.0 °F - 69.1 °F 76% 30.02 in 10.0 mi Calm Calm - N/A   Clear